KM4LTG Weather Reports


time (UTC)temp
F
wind
direction
speed
knots
gust
knots
rain 1hr
in
rain 24hr
in
rain mn
in
humidity
%
barometer
mb
20260504202749 84 112 2.6 6.1 0.00 0.00 0.00 44 1014.8
20260504202254 84 45 5.2 12.2 0.00 0.00 0.00 44 1014.9
20260504201826 85 112 1.7 4.3 0.00 0.00 0.00 43 1014.8
20260504201414 84 45 2.6 5.2 0.00 0.00 0.00 43 1014.9
20260504200914 84 135 3.5 10.4 0.00 0.00 0.00 45 1015.0
20260504200500 84 90 2.6 8.7 0.00 0.00 0.00 45 1015.0
20260504200039 84 90 2.6 8.7 0.00 0.00 0.00 45 1015.0
20260504195639 84 135 1.7 5.2 0.00 0.00 0.00 44 1015.1
20260504195214 84 68 2.6 6.1 0.00 0.00 0.00 44 1015.3
20260504194810 83 68 2.6 6.1 0.00 0.00 0.00 45 1015.3
20260504194354 84 90 3.5 7.8 0.00 0.00 0.00 43 1015.3
20260504193904 85 90 2.6 5.2 0.00 0.00 0.00 43 1015.3
20260504193420 84 90 2.6 6.1 0.00 0.00 0.00 44 1015.4
20260504192920 84 45 2.6 6.1 0.00 0.00 0.00 44 1015.5
20260504192435 83 90 3.5 8.7 0.00 0.00 0.00 45 1015.6
20260504192009 83 45 3.5 7.8 0.00 0.00 0.00 46 1015.8
20260504191539 83 45 3.5 7.8 0.00 0.00 0.00 46 1015.8
20260504191119 82 68 5.2 9.6 0.00 0.00 0.00 46 1015.7
20260504190629 83 112 1.7 8.7 0.00 0.00 0.00 45 1015.8
20260504190214 82 112 1.7 5.2 0.00 0.00 0.00 45 1016.0
20260504185724 82 68 2.6 6.1 0.00 0.00 0.00 45 1015.9
20260504185324 82 68 4.3 7.8 0.00 0.00 0.00 46 1015.9
20260504184840 83 90 3.5 9.6 0.00 0.00 0.00 44 1016.1
20260504184350 83 90 4.3 8.7 0.00 0.00 0.00 45 1016.2
20260504183950 82 90 2.6 7.0 0.00 0.00 0.00 44 1016.4
20260504183525 82 90 2.6 7.0 0.00 0.00 0.00 44 1016.4
20260504183057 83 90 3.5 6.1 0.00 0.00 0.00 43 1016.5
20260504182650 83 112 4.3 7.8 0.00 0.00 0.00 42 1016.6
20260504182210 83 68 2.6 7.0 0.00 0.00 0.00 44 1016.7
20260504181805 82 112 2.6 6.1 0.00 0.00 0.00 46 1016.8
20260504181330 82 112 4.3 9.6 0.00 0.00 0.00 45 1016.9
20260504180854 82 90 4.3 10.4 0.00 0.00 0.00 45 1016.9
20260504180445 82 90 3.5 7.8 0.00 0.00 0.00 45 1017.1
20260504180010 82 112 2.6 6.1 0.00 0.00 0.00 45 1017.0
20260504175534 82 112 2.6 6.1 0.00 0.00 0.00 45 1017.0
20260504175040 81 112 4.3 8.7 0.00 0.00 0.00 46 1017.2
20260504174600 82 158 4.3 10.4 0.00 0.00 0.00 46 1017.2
20260504174200 82 135 3.5 7.0 0.00 0.00 0.00 47 1017.2
20260504173725 81 68 4.3 9.6 0.00 0.00 0.00 48 1017.2
20260504173229 81 90 6.1 10.4 0.00 0.00 0.00 48 1017.4
20260504172830 80 68 3.5 6.1 0.00 0.00 0.00 48 1017.4
20260504172429 80 68 7.0 13.0 0.00 0.00 0.00 47 1017.2
20260504171939 81 90 4.3 8.7 0.00 0.00 0.00 49 1017.4
20260504171514 81 90 5.2 12.2 0.00 0.00 0.00 49 1017.4
20260504171024 81 90 5.2 12.2 0.00 0.00 0.00 49 1017.4
20260504170554 80 135 4.3 9.6 0.00 0.00 0.00 49 1017.4
20260504170110 80 68 5.2 9.6 0.00 0.00 0.00 49 1017.6
20260504160354 79 45 5.2 10.4 0.00 0.00 0.00 53 1017.9
20260504151034 77 90 6.1 11.3 0.00 0.00 0.00 58 1018.3
20260504150635 77 68 5.2 10.4 0.00 0.00 0.00 59 1018.3
20260504150144 76 68 6.1 12.2 0.00 0.00 0.00 61 1018.2
20260504141330 75 68 6.1 13.9 0.00 0.00 0.00 64 1018.0
20260504140914 75 68 5.2 11.3 0.00 0.00 0.00 65 1017.9
20260504140444 74 68 6.1 13.0 0.00 0.00 0.00 64 1017.9
20260504130629 72 45 5.2 10.4 0.00 0.00 0.00 67 1017.7
20260504130152 72 68 4.3 7.8 0.00 0.00 0.00 68 1017.6
20260504120212 70 90 2.6 5.2 0.00 0.00 0.00 72 1017.3
20260504110655 67 68 1.7 6.1 0.00 0.00 0.00 77 1017.0
20260504110231 67 68 1.7 5.2 0.00 0.00 0.00 77 1017.0
20260504100546 67 45 0.9 2.6 0.00 0.00 0.00 78 1016.7
20260504081754 69 68 1.7 3.5 0.00 0.00 0.00 73 1016.4
20260504081349 70 68 1.7 5.2 0.00 0.00 0.00 73 1016.4
20260504080924 70 68 1.7 4.3 0.00 0.00 0.00 73 1016.3
20260504080524 70 68 1.7 4.3 0.00 0.00 0.00 73 1016.3
20260504070339 71 68 1.7 4.3 0.00 0.00 0.00 72 1017.2
20260504060205 70 68 0.9 2.6 0.00 0.00 0.00 73 1017.0
20260504050409 71 90 1.7 4.3 0.00 0.00 0.00 73 1017.4
20260504050009 71 90 1.7 4.3 0.00 0.00 0.00 72 1017.6
20260504045529 71 90 1.7 4.3 0.00 0.00 0.00 72 1017.6
20260504045128 71 68 1.7 3.5 0.00 0.00 0.00 72 1017.6
20260504044705 71 68 1.7 4.3 0.00 0.00 0.00 72 1017.7
20260504044229 71 90 3.5 7.8 0.00 0.00 0.00 72 1017.7
20260504043811 72 90 1.7 4.3 0.00 0.00 0.00 71 1017.7
20260504043359 72 90 5.2 10.4 0.00 0.00 0.00 71 1017.5
20260504042954 72 90 2.6 7.8 0.00 0.00 0.00 71 1017.7
20260504042509 72 90 3.5 7.8 0.00 0.00 0.00 71 1017.8
20260504042035 72 90 3.5 7.8 0.00 0.00 0.00 71 1017.8
20260504041600 72 90 4.3 11.3 0.00 0.00 0.00 71 1018.0
20260504041124 72 90 3.5 7.0 0.00 0.00 0.00 71 1017.8
20260504040624 72 68 3.5 8.7 0.00 0.00 0.00 71 1018.0
20260504040153 72 68 3.5 8.7 0.00 0.00 0.00 71 1018.0
20260504035700 72 90 2.6 7.8 0.00 0.00 0.01 71 1018.3
20260504035201 73 90 2.6 7.8 0.00 0.00 0.01 70 1018.3
20260504034759 73 68 2.6 5.2 0.00 0.00 0.01 70 1018.1
20260504034400 73 90 3.5 7.8 0.00 0.00 0.01 70 1018.1
20260504033936 73 112 4.3 8.7 0.00 0.00 0.01 70 1018.2
20260504033506 73 90 4.3 8.7 0.00 0.00 0.01 70 1018.1
20260504033010 73 90 2.6 7.0 0.00 0.00 0.01 69 1018.3
20260504032515 73 90 2.6 5.2 0.00 0.00 0.01 69 1018.2
20260504032102 73 90 2.6 5.2 0.00 0.00 0.01 69 1018.2
20260504031630 74 112 2.6 5.2 0.00 0.00 0.01 69 1018.1
20260504031216 74 90 2.6 8.7 0.00 0.00 0.01 69 1018.1
20260504030725 74 90 2.6 5.2 0.00 0.00 0.01 69 1018.0
20260504030315 74 68 1.7 6.1 0.00 0.00 0.01 69 1018.0
20260504025905 74 90 2.6 7.0 0.00 0.00 0.01 69 1017.9
20260504025508 74 112 2.6 7.8 0.00 0.00 0.01 69 1018.0
20260504025040 74 112 2.6 7.8 0.00 0.00 0.01 69 1018.0
20260504024609 74 90 3.5 8.7 0.00 0.00 0.01 69 1017.9
20260504024153 74 68 2.6 6.1 0.00 0.00 0.01 69 1017.9
20260504023650 74 68 0.9 5.2 0.00 0.00 0.01 69 1017.8
20260504023203 74 68 0.9 3.5 0.00 0.00 0.01 68 1017.8
20260504022719 74 68 0.9 2.6 0.00 0.00 0.01 66 1017.8
20260504022229 74 22 0.9 3.5 0.00 0.00 0.01 65 1017.7
20260504021754 74 68 1.7 5.2 0.00 0.00 0.01 66 1017.7
20260504021343 74 0.0 1.7 0.00 0.00 0.01 65 1017.6
20260504020855 74 0.0 1.7 0.00 0.00 0.01 65 1017.6
20260504020359 73 112 1.7 4.3 0.00 0.00 0.01 65 1017.5
20260504015900 73 68 0.9 2.6 0.00 0.00 0.01 65 1017.3
20260504015414 73 360 0.9 2.6 0.00 0.00 0.01 66 1017.4
20260504014955 73 45 0.9 1.7 0.00 0.00 0.01 66 1017.3
20260504014544 73 45 0.9 1.7 0.00 0.00 0.01 66 1017.3
20260504014129 73 0.0 1.7 0.00 0.00 0.01 66 1017.4
20260504013710 73 0.0 1.7 0.00 0.00 0.01 66 1017.4
20260504013244 73 360 0.9 1.7 0.00 0.00 0.01 66 1017.3
20260504012842 73 360 0.9 2.6 0.00 0.00 0.01 66 1017.1
20260504012400 73 360 0.9 3.5 0.00 0.00 0.01 66 1017.2
20260504011929 73 338 0.9 2.6 0.00 0.00 0.01 66 1017.1
20260504011523 73 338 0.9 2.6 0.00 0.00 0.01 66 1017.1
20260504011119 73 360 0.9 2.6 0.00 0.00 0.01 66 1017.1
20260504010624 73 22 0.9 2.6 0.00 0.00 0.01 66 1017.0
20260504010135 73 338 0.9 2.6 0.00 0.00 0.01 66 1016.9
20260504005644 74 338 0.9 4.3 0.00 0.00 0.01 66 1016.8
20260504005144 74 22 0.9 2.6 0.00 0.00 0.01 66 1016.7
20260504004714 74 22 0.9 2.6 0.00 0.00 0.01 66 1016.7
20260504004216 74 338 1.7 3.5 0.00 0.00 0.01 66 1016.7
20260504003759 74 338 1.7 3.5 0.00 0.00 0.01 66 1016.7
20260504003331 74 360 2.6 4.3 0.00 0.00 0.01 66 1016.6
20260504002909 74 360 2.6 6.1 0.00 0.00 0.01 66 1016.5
20260504002442 74 338 2.6 7.0 0.00 0.00 0.01 65 1016.5
20260504002011 74 338 1.7 5.2 0.00 0.00 0.01 65 1016.4
20260504001602 74 338 1.7 5.2 0.00 0.00 0.01 65 1016.4
20260504001159 74 338 1.7 7.8 0.00 0.00 0.01 65 1016.3
20260504000700 74 338 1.7 6.1 0.00 0.00 0.01 65 1016.3
20260504000244 75 360 2.6 7.8 0.00 0.00 0.01 65 1016.4
20260503235825 75 338 2.6 6.1 0.00 0.00 0.01 65 1016.2
20260503235349 75 338 2.6 7.0 0.00 0.00 0.01 64 1016.1
20260503234919 75 338 3.5 8.7 0.00 0.00 0.01 64 1016.2
20260503234511 76 338 3.5 6.1 0.00 0.00 0.01 63 1016.2
20260503234110 76 338 3.5 6.1 0.00 0.00 0.01 63 1016.2
20260503233629 76 338 3.5 7.8 0.00 0.00 0.01 62 1016.3
20260503233220 77 338 1.7 5.2 0.00 0.00 0.01 62 1016.2
20260503232811 77 338 1.7 6.1 0.00 0.00 0.01 62 1016.2
20260503232346 77 338 2.6 7.0 0.00 0.00 0.01 61 1016.2
20260503231910 77 338 2.6 8.7 0.00 0.00 0.01 61 1016.0
20260503231454 78 360 2.6 6.1 0.00 0.00 0.01 60 1016.1
20260503231008 79 338 3.5 7.0 0.00 0.00 0.01 59 1016.0
20260503230603 79 338 3.5 7.0 0.00 0.00 0.01 59 1016.0
20260503230124 79 315 1.7 5.2 0.00 0.00 0.01 59 1016.1
20260503225720 79 315 1.7 5.2 0.00 0.00 0.01 59 1016.1
20260503225225 79 338 3.5 8.7 0.00 0.00 0.01 59 1016.0
20260503224808 80 338 2.6 6.1 0.00 0.00 0.01 58 1016.1
20260503224349 80 68 1.7 6.1 0.00 0.00 0.01 56 1016.1
20260503223944 80 45 2.6 6.1 0.00 0.00 0.01 54 1016.0
20260503223526 80 45 2.6 6.1 0.00 0.00 0.01 54 1016.0
20260503223110 80 45 3.5 6.1 0.00 0.00 0.01 54 1015.9
20260503222613 80 68 0.9 2.6 0.00 0.00 0.01 53 1016.0
20260503222154 80 90 3.5 7.0 0.00 0.00 0.01 54 1015.9
20260503221714 80 45 2.6 4.3 0.00 0.00 0.01 53 1016.0
20260503221255 80 22 2.6 5.2 0.00 0.00 0.01 54 1015.9
20260503220814 80 338 1.7 4.3 0.00 0.00 0.01 53 1016.0
20260503220328 80 45 2.6 6.1 0.00 0.00 0.01 54 1016.1
20260503215909 80 338 2.6 7.0 0.00 0.00 0.01 54 1016.1
20260503215430 80 338 2.6 6.1 0.00 0.00 0.01 53 1016.1
20260503215025 80 338 2.6 6.1 0.00 0.00 0.01 53 1016.1
20260503214617 80 338 2.6 5.2 0.00 0.00 0.01 54 1015.9
20260503214212 80 22 1.7 5.2 0.00 0.00 0.01 54 1016.0
20260503213714 80 45 2.6 4.3 0.00 0.00 0.01 54 1016.0
20260503213305 81 360 0.9 3.5 0.00 0.00 0.01 54 1016.1
20260503212820 80 45 2.6 5.2 0.00 0.00 0.01 54 1016.1
20260503212335 80 338 2.6 5.2 0.00 0.00 0.01 55 1016.1
20260503211839 80 45 3.5 7.0 0.00 0.00 0.01 55 1016.1
20260503211405 79 45 4.3 7.0 0.00 0.00 0.01 55 1016.1
20260503211001 80 45 0.9 6.1 0.00 0.00 0.01 56 1016.0
20260503210534 80 45 0.9 6.1 0.00 0.00 0.01 56 1016.0
20260503210054 80 45 1.7 4.3 0.00 0.00 0.01 55 1016.1
20260503205644 80 22 3.5 6.1 0.00 0.00 0.01 55 1016.1
20260503205221 80 338 3.5 6.1 0.00 0.00 0.01 55 1016.2
20260503204754 80 45 3.5 7.8 0.00 0.00 0.01 56 1016.2
20260503204335 80 45 3.5 7.0 0.00 0.00 0.01 55 1016.3
20260503203839 79 45 5.2 9.6 0.00 0.00 0.01 56 1016.3
20260503203409 80 68 2.6 7.0 0.00 0.00 0.01 56 1016.4